[[{"header":{"parameterUnit":"m.s-1","parameterCategory":1,"la1":30.2991,"la2":30.254,"lo1":-89.0895,"lo2":-89.0444,"dy":0.0017,"dx":0.0017,"nx":28,"ny":28,"refTime":"2023-09-05T03:00:00:Z","depth":0,"parameterNumber":2,"parameterNumberName":"U-component_of_WINDS"},"data":[0,0,0,0,0,0,0,0,0,0,0,0,0,0,0,0,0,0,0,0,0,0,0,0,0,0,0,0,0,0,0,0,0,0,0,0,0,0,0,0,0,0,0,0,0,0,0,0,0,0,0,0,0,0,0,0,0,0,-4.1058,-4.1058,0,-4.1093,-4.1093,-4.1094,-4.1031,-4.1029,-4.1027,-4.1025,-4.106,-4.1063,-4.1066,0,0,0,0,0,0,0,0,0,0,0,0,0,-4.0938,-4.094,-4.1058,-4.1058,-4.1059,-4.1093,-4.1093,-4.1094,-4.1031,-4.1029,-4.1026,-4.1024,-4.1059,-4.1063,-4.1066,0,0,0,0,0,0,0,0,0,0,0,0,0,-4.0983,-4.0941,-4.1058,-4.1032,-4.103,-4.1093,-4.1093,-4.1094,-4.1032,-4.1029,-4.1026,-4.1023,-4.1058,-4.1062,-4.1067,-4.1156,0,0,-4.108,-4.1082,0,0,0,0,0,0,0,0,-4.0981,-4.0987,-4.1035,-4.1034,-4.1032,-4.1054,-4.1064,-4.1115,-4.1033,-4.1031,-4.1025,-4.1021,-4.1061,-4.1065,-4.1078,-4.1158,-4.116,-4.108,-4.1083,-4.1085,-4.1086,0,0,0,0,0,0,0,-4.0977,-4.0986,-4.1072,-4.1036,-4.1034,-4.1019,-4.1021,-4.1073,-4.1063,-4.1031,-4.1027,-4.1032,-4.1059,-4.1074,-4.1079,-4.116,-4.108,-4.1084,-4.1087,-4.1088,-4.1317,-4.132,0,0,0,0,0,0,-4.0978,-4.0983,-4.1071,-4.1073,-4.0998,-4.1023,-4.1027,-4.105,-4.1062,-4.1061,-4.1034,-4.1029,-4.1068,-4.1074,-4.108,-4.1185,-4.1085,-4.1089,-4.1091,-4.1313,-4.1317,-4.1321,0,0,0,0,0,0,-4.0975,-4.0986,-4.1069,-4.1027,-4.1036,-4.1029,-4.1056,-4.1053,-4.1067,-4.1065,-4.1063,-4.1051,-4.1066,-4.1073,-4.1138,-4.1185,-4.1091,-4.1095,-4.1309,-4.1314,-4.1319,-4.1397,0,0,0,0,0,0,-4.0972,-4.0985,-4.1019,-4.1028,-4.1039,-4.1127,-4.1059,-4.1056,-4.1075,-4.1068,-4.108,-4.1079,-4.1064,-4.1132,-4.1142,-4.119,-4.1098,-4.1305,-4.1311,-4.1318,-4.139,-4.1404,-4.1417,0,0,0,0,0,-4.0968,-4.1039,-4.1021,-4.1032,-4.1081,-4.113,-4.1136,-4.1117,-4.1079,-4.1113,-4.1112,-4.1079,-4.1179,-4.1139,-4.115,-4.12,-4.1301,-4.1309,-4.1317,-4.1384,-4.1402,-4.1416,0,0,0,0,0,0,-4.1035,-4.104,-4.102,-4.1096,-4.1113,-4.1119,-4.1161,-4.1136,-4.1163,-4.1155,-4.1131,-4.1134,-4.1204,-4.1209,-4.1164,-4.1288,-4.1234,-4.1244,-4.1281,-4.1298,-4.1311,-4.1307,-4.1102,0,0,0,0,0,-4.1059,-4.1098,-4.1101,-4.1168,-4.1178,-4.1168,-4.1189,-4.1173,-4.1189,-4.1196,-4.1199,-4.1217,-4.1252,-4.1276,-4.1308,-4.1392,-4.1394,-4.1432,-4.1445,-4.1456,-4.1464,-4.1509,-4.1526,-4.1347,-4.1346,-4.1346,0,0,-4.1108,-4.1116,-4.1142,-4.1182,-4.1193,-4.1234,-4.1174,-4.122,-4.1251,-4.1203,-4.1263,-4.1268,-4.1285,-4.136,-4.1393,-4.1366,-4.1515,-4.1466,-4.1474,-4.1477,-4.1519,-4.1536,-4.1551,-4.1352,-4.1351,-4.135,0,0,-4.1219,-4.1229,-4.1286,-4.1299,-4.1317,-4.1311,-4.1325,-4.1335,-4.1336,-4.1397,-4.1362,-4.1399,-4.146,-4.1474,-4.149,-4.1609,-4.1579,-4.1621,-4.1688,-4.1732,-4.1746,-4.1758,-4.18,-4.1815,-4.163,-4.163,-4.163,0,-4.1277,-4.1338,-4.1319,-4.1367,-4.1386,-4.1346,-4.1404,-4.1418,-4.1445,-4.1459,-4.1429,-4.1506,-4.1516,-4.1593,-4.1622,-4.1637,-4.1652,-4.1617,-4.1746,-4.1758,-4.1769,-4.1808,-4.1824,-4.1634,-4.1634,-4.1633,-4.1633,0,-4.1409,-4.1452,-4.1496,-4.1524,-4.1548,-4.1601,-4.159,-4.1617,-4.1601,-4.1598,-4.1661,-4.1671,-4.1705,-4.1723,-4.1707,-4.1799,-4.1782,-4.1749,-4.1694,-4.1791,-4.1827,-4.1842,-4.1641,-4.164,-4.1638,-4.1637,0,0,-4.1559,-4.1578,-4.1594,-4.1607,-4.1625,-4.1658,-4.1711,-4.1744,-4.1767,-4.1789,-4.1832,-4.1886,-4.1857,-4.1874,-4.186,-4.1899,-4.1993,-4.1862,-4.1862,-4.1885,-4.2094,-4.2116,-4.2134,-4.1975,-4.1978,-4.198,-4.2092,0,-4.1667,-4.1756,-4.1742,-4.1828,-4.1867,-4.1832,-4.1877,-4.1894,-4.1894,-4.1928,-4.1928,-4.1966,-4.1925,-4.1935,-4.1973,-4.1973,-4.2034,-4.1965,-4.2013,-4.2015,-4.2007,-4.2153,-4.2177,-4.2282,-4.2106,-4.2108,-4.211,0,-4.1805,-4.1832,-4.1922,-4.1936,-4.1952,-4.1992,-4.2023,-4.2056,-4.2075,-4.2072,-4.2093,-4.2073,-4.2125,-4.2072,-4.2144,-4.2098,-4.2118,-4.2122,-4.2125,-4.2127,-4.2067,-4.2157,-4.2315,-4.233,-4.2133,-4.2131,-4.2129,0,-4.1903,-4.1963,-4.2024,-4.2037,-4.2054,-4.2084,-4.2093,-4.2109,-4.213,-4.2158,-4.2172,-4.2205,-4.2223,-4.2249,-4.2239,-4.2201,-4.2313,-4.2259,-4.2312,-4.2312,-4.2334,-4.2332,-4.2495,-4.2351,-4.2351,-4.235,-4.235,0,-4.2024,-4.208,-4.2069,-4.2107,-4.2169,-4.2153,-4.2215,-4.222,-4.2235,-4.2273,-4.2246,-4.2283,-4.2268,-4.2304,-4.2296,-4.2357,-4.2366,-4.2365,-4.2361,-4.2366,-4.2366,-4.2376,-4.2368,-4.2355,-4.2354,-4.2353,-4.2352,0,-4.2143,-4.2138,-4.2203,-4.2215,-4.222,-4.2265,-4.2275,-4.2311,-4.231,-4.2359,-4.237,-4.2368,-4.2409,-4.2402,-4.2448,-4.2443,-4.2519,-4.2508,-4.2512,-4.2508,-4.2561,-4.2555,-4.2734,-4.2757,-4.26,-4.2601,-4.2603,0,-4.2219,-4.2262,-4.2279,-4.2303,-4.2314,-4.2353,-4.2375,-4.2362,-4.2387,-4.2413,-4.2446,-4.2485,-4.2515,-4.2583,-4.2586,-4.2621,-4.2609,-4.267,-4.2614,-4.2617,-4.2608,-4.2605,-4.2609,-4.268,-4.2682,-4.2683,-4.2684,0,-4.2355,-4.2351,-4.2384,-4.2417,-4.2445,-4.247,-4.2493,-4.2514,-4.2503,-4.2532,-4.2574,-4.2598,-4.2646,-4.2684,-4.2718,-4.2727,-4.2704,-4.2703,-4.2716,-4.2719,-4.2719,-4.2719,-4.2539,-4.2697,-4.2696,-4.2695,-4.2694,-4.2694,-4.2453,-4.249,-4.2508,-4.2546,-4.2562,-4.2585,-4.2619,-4.2623,-4.2658,-4.2695,-4.2686,-4.2733,-4.2753,-4.2796,-4.2809,-4.2847,-4.2824,-4.2845,-4.2849,-4.2854,-4.286,-4.2716,-4.2853,-4.2853,-4.2853,-4.2852,-4.2852,0,-4.2586,-4.2596,-4.2632,-4.2665,-4.2696,-4.2673,-4.2697,-4.2724,-4.2766,-4.2787,-4.2818,-4.2867,-4.2905,-4.2913,-4.2949,-4.2978,-4.2969,-4.2988,-4.2985,-4.2987,-4.2878,-4.2862,-4.2995,-4.2995,-4.2995,-4.2995,-4.2995,-4.2995,-4.2658,-4.2718,-4.2717,-4.2785,-4.2795,-4.2842,-4.2858,-4.2879,-4.2895,-4.2951,-4.2982,-4.2987,-4.3003,-4.3041,-4.3076,-4.3077,-4.3091,-4.3115,-4.3112,-4.3009,-4.2995,-4.2981,-4.2965,-4.3119,-4.3119,-4.3217,-4.3218,-4.3219]},{"header":{"parameterUnit":"m.s-1","parameterCategory":1,"la1":30.2991,"la2":30.254,"lo1":-89.0895,"lo2":-89.0444,"dy":0.0017,"dx":0.0017,"nx":28,"ny":28,"refTime":"2023-09-05T03:00:00:Z","depth":0,"parameterNumber":3,"parameterNumberName":"V-component_of_WINDS"},"data":[0,0,0,0,0,0,0,0,0,0,0,0,0,0,0,0,0,0,0,0,0,0,0,0,0,0,0,0,0,0,0,0,0,0,0,0,0,0,0,0,0,0,0,0,0,0,0,0,0,0,0,0,0,0,0,0,0,0,2.297,2.297,0,2.2941,2.2941,2.2941,2.2933,2.2933,2.2933,2.2933,2.2899,2.2898,2.2897,0,0,0,0,0,0,0,0,0,0,0,0,0,2.3014,2.3013,2.297,2.297,2.2969,2.2942,2.2941,2.2941,2.2933,2.2933,2.2933,2.2933,2.29,2.2899,2.2897,0,0,0,0,0,0,0,0,0,0,0,0,0,2.2991,2.3013,2.297,2.2962,2.2961,2.2942,2.2941,2.2941,2.2932,2.2933,2.2933,2.2933,2.29,2.2899,2.2897,2.2882,0,0,2.2892,2.2892,0,0,0,0,0,0,0,0,2.2992,2.2989,2.2964,2.2963,2.2961,2.2941,2.2944,2.2921,2.2932,2.2943,2.2933,2.2933,2.2913,2.291,2.2904,2.2881,2.2879,2.2892,2.2891,2.2891,2.289,0,0,0,0,0,0,0,2.2994,2.299,2.2959,2.2963,2.2962,2.2959,2.2956,2.294,2.2927,2.2942,2.2942,2.2939,2.2912,2.2906,2.2903,2.2879,2.2892,2.2891,2.289,2.2889,2.2841,2.2841,0,0,0,0,0,0,2.2997,2.2992,2.296,2.2958,2.2978,2.2958,2.2954,2.2947,2.2927,2.2924,2.2938,2.2938,2.2908,2.2905,2.2902,2.2883,2.2891,2.2889,2.2888,2.2842,2.2841,2.2841,0,0,0,0,0,0,2.2998,2.2995,2.2961,2.2975,2.297,2.2957,2.2949,2.2946,2.294,2.2924,2.2921,2.2934,2.2908,2.2904,2.2888,2.2882,2.2888,2.2887,2.2842,2.2842,2.2841,2.2846,0,0,0,0,0,0,2.3,2.2995,2.299,2.2975,2.2969,2.2948,2.2948,2.2946,2.2938,2.2937,2.292,2.2917,2.2908,2.289,2.2886,2.288,2.2886,2.2843,2.2842,2.2841,2.2846,2.2845,2.2845,0,0,0,0,0,2.3001,2.2992,2.299,2.2986,2.2963,2.2948,2.2945,2.2936,2.2937,2.2932,2.2922,2.2917,2.2883,2.2888,2.2884,2.2877,2.2843,2.2842,2.2841,2.2846,2.2845,2.2845,0,0,0,0,0,0,2.3005,2.2989,2.2987,2.2973,2.2962,2.2946,2.2939,2.2936,2.2923,2.2923,2.2912,2.2907,2.2891,2.2883,2.2888,2.2862,2.2863,2.2861,2.2868,2.2867,2.2867,2.2869,2.2884,0,0,0,0,0,2.3005,2.2995,2.2981,2.2969,2.2964,2.2953,2.2945,2.294,2.2927,2.2922,2.2911,2.2898,2.2884,2.2875,2.2862,2.2845,2.284,2.2838,2.2837,2.2837,2.2835,2.2825,2.2824,2.2839,2.2839,2.2839,0,0,2.3003,2.2993,2.2987,2.297,2.2961,2.2949,2.2949,2.2937,2.2928,2.292,2.2904,2.2895,2.2879,2.2863,2.2854,2.2855,2.283,2.2836,2.2836,2.2834,2.2824,2.2823,2.2821,2.2838,2.2838,2.2838,0,0,2.2994,2.2986,2.2976,2.2967,2.2953,2.2946,2.2943,2.2928,2.2923,2.2907,2.2901,2.2889,2.2866,2.2855,2.2847,2.2834,2.2829,2.283,2.2827,2.2817,2.2815,2.2814,2.2809,2.2807,2.2828,2.2828,2.2828,0,2.2993,2.2977,2.297,2.2959,2.2951,2.2945,2.2933,2.2925,2.2907,2.2901,2.2902,2.2873,2.2862,2.2842,2.2839,2.2833,2.2828,2.2831,2.2817,2.2815,2.2814,2.2809,2.2807,2.2828,2.2828,2.2828,2.2828,0,2.2977,2.2966,2.2958,2.2943,2.2934,2.2923,2.2913,2.2904,2.29,2.2892,2.2875,2.2862,2.2846,2.2841,2.2835,2.282,2.282,2.2819,2.282,2.2813,2.2808,2.2806,2.2829,2.2828,2.2828,2.2828,0,0,2.2969,2.2951,2.2948,2.2941,2.2926,2.2916,2.2904,2.289,2.2882,2.287,2.2859,2.284,2.2839,2.2829,2.2822,2.2814,2.2804,2.2813,2.2813,2.2811,2.2785,2.2786,2.2784,2.2801,2.28,2.28,2.2786,0,2.2958,2.2938,2.2931,2.2913,2.2902,2.2897,2.2886,2.2875,2.2867,2.2855,2.2846,2.2832,2.2832,2.2826,2.2818,2.2807,2.2798,2.2808,2.2789,2.2788,2.2792,2.2781,2.2782,2.2769,2.2784,2.2784,2.2783,0,2.2942,2.2932,2.2913,2.29,2.2895,2.2885,2.2871,2.2861,2.2847,2.2842,2.2832,2.2826,2.2811,2.2814,2.2793,2.28,2.2792,2.2785,2.2785,2.2782,2.2785,2.2777,2.2765,2.2763,2.278,2.2781,2.2781,0,2.2938,2.2919,2.2905,2.2899,2.2883,2.2877,2.2869,2.2856,2.2848,2.2835,2.2829,2.2815,2.2806,2.2795,2.2784,2.2787,2.2764,2.2766,2.2758,2.2759,2.2753,2.2754,2.2739,2.2749,2.2749,2.2749,2.2749,0,2.2926,2.2915,2.2903,2.2895,2.2882,2.2874,2.286,2.2853,2.2841,2.283,2.2824,2.2813,2.2801,2.2788,2.278,2.2764,2.276,2.2755,2.2753,2.2755,2.2756,2.2749,2.2749,2.2749,2.2749,2.2749,2.2749,0,2.2919,2.2911,2.2896,2.2882,2.2878,2.2869,2.2857,2.2847,2.284,2.2826,2.2822,2.2809,2.2794,2.2783,2.2763,2.2757,2.274,2.2738,2.2745,2.2743,2.2736,2.2737,2.2716,2.2712,2.2726,2.2726,2.2726,0,2.2912,2.2903,2.2889,2.2882,2.2875,2.2863,2.2855,2.2846,2.2837,2.2822,2.2814,2.2799,2.2787,2.2762,2.275,2.2735,2.2732,2.2726,2.273,2.2732,2.2731,2.2732,2.273,2.2725,2.2725,2.2725,2.2725,0,2.2899,2.2896,2.2885,2.2873,2.2863,2.2853,2.2842,2.2836,2.2825,2.2815,2.2801,2.2791,2.2771,2.2756,2.2739,2.273,2.2725,2.2724,2.2721,2.2723,2.2727,2.2724,2.2742,2.2724,2.2724,2.2724,2.2724,2.2724,2.2891,2.2884,2.2872,2.286,2.2851,2.2841,2.2832,2.2824,2.2812,2.2796,2.2791,2.2776,2.2762,2.2739,2.273,2.2717,2.2717,2.2713,2.2712,2.2711,2.2711,2.273,2.2714,2.2714,2.2714,2.2714,2.2714,0,2.2878,2.2871,2.286,2.2846,2.2836,2.2834,2.2821,2.2813,2.28,2.2788,2.2776,2.2759,2.2744,2.2731,2.2715,2.2707,2.2704,2.2703,2.2703,2.2701,2.2712,2.2716,2.2705,2.2705,2.2705,2.2705,2.2705,2.2705,2.287,2.2857,2.2852,2.2833,2.2825,2.2811,2.2804,2.2795,2.2785,2.2767,2.2755,2.2747,2.2734,2.2717,2.2703,2.2699,2.2693,2.2693,2.2688,2.2699,2.27,2.2701,2.2704,2.2692,2.2692,2.2678,2.2678,2.2678]}]]